Regional Weather Roundup
Issued by NWS

Home | Current Version | Previous Version | Graphics & Text | Print | Product List | Glossary On
Versions: 1 2 3 4 5 6 7 8 9 10 11 12 13 14 15 16 17 18 19 20 21 22 23 24 25 26 27 28 29 30 31 32 33 34 35 36 37 38 39 40 41 42 43 44 45 46 47 48 49 50
000
ASUS43 KMKX 221300
RWRWI

WISCONSIN REGIONAL WEATHER ROUNDUP
NATIONAL WEATHER SERVICE MILWAUKEE/SULLIVAN WI
800 AM CDT FRI AUG 22 2014

NOTE: "FAIR" INDICATES FEW OR NO CLOUDS BELOW 12,000 FEET WITH NO
SIGNIFICANT WEATHER AND/OR OBSTRUCTIONS TO VISIBILITY.

WIZ001-002-006>008-014>016-023>028-221400-
NORTHWEST WISCONSIN

CITY           SKY/WX    TMP DP  RH WIND       PRES   REMARKS
SUPERIOR ARPT  DRZL/FOG  60  60 100 E10       29.96R VSB 3/4
ASHLAND        CLOUDY    64  63  96 N6        29.95R FOG
HAYWARD        CLOUDY    68  68 100 NE6       29.93R FOG
SIREN          FOG       63  62  98 N7        29.93S VSB 1/2
RICE LAKE      FOG       71  69  95 CALM      29.92R VSB 1/2
LADYSMITH      FOG       69  68  97 E5        29.93S VSB 3/4
EAU CLAIRE     CLOUDY    72  72 100 S3        29.89R FOG
MENOMONIE      CLOUDY    73  72  97 CALM      29.91R FOG
NEW RICHMOND   CLOUDY    67  67 100 NW5       29.92R FOG
OSCEOLA        CLOUDY    66  66 100 N7        29.94S FOG
$$

WIZ003>005-009-010-017-018-221400-
NORTH CENTRAL WISCONSIN

CITY           SKY/WX    TMP DP  RH WIND       PRES   REMARKS
WOODRUFF       FOG       65  62  92 SE3       29.96F VSB 1/2
RHINELANDER    FOG       64  64 100 E7        29.97S VSB 1/2
EAGLE RIVER    CLOUDY    64  64 100 SE5       29.97S FOG
LAND O LAKES   CLOUDY    64  64 100 SE5       29.99S FOG
PHILLIPS       CLOUDY    65  65 100 SE3       29.94S FOG
TOMAHAWK       FOG       64  64  97 CALM      29.95F VSB 3/4
MEDFORD        FOG       66  66 100 SE3       29.93F VSB 1/4
MERRILL        FOG       65  65 100 SE3       29.95S VSB 1
$$

WIZ029-030-035-036-043>047-221400-
CENTRAL WISCONSIN

CITY           SKY/WX    TMP DP  RH WIND       PRES   REMARKS
WAUSAU         CLOUDY    65  65 100 E7        29.93S FOG
MOSINEE        FOG       66  66 100 E6        29.96R VSB 1/2
MARSHFIELD     FOG       70  69  97 SE6       29.93S VSB 1/4
STEVENS POINT  CLOUDY    66  66 100 E5        29.95R FOG
WAUPACA        FOG       69  68  95 CALM      29.94S VSB<1/4
WAUTOMA        NOT AVBL
WISC RAPIDS    CLOUDY    71  70  96 E6        29.95R FOG
CAMP DOUGLAS   FOG       72  72 100 SE5       29.93R VSB 1/2
$$

WIZ011>013-019>022-031-037>040-048>050-221400-
NORTHEAST WISCONSIN

CITY           SKY/WX    TMP DP  RH WIND       PRES   REMARKS
ANTIGO         FOG       63  63 100 SE6       29.97S VSB 1/2
STURGEON BAY   CLOUDY    66  64  94 SE3       29.97S VSB 1/2
GREEN BAY      CLOUDY    68  66  93 CALM      29.95R FOG
MANITOWOC      FOG       66  66 100 E5        29.96R VSB 1/2
APPLETON         N/A     68  66  94 VRB5      29.96R
CLINTONVILLE   FOG       64  64 100 CALM      29.95R VSB 1/4
OSHKOSH        CLOUDY    71  69  93 E3        29.95R FOG
$$

WIZ032>034-041-042-053>061-221400-
SOUTHWEST WISCONSIN

CITY           SKY/WX    TMP DP  RH WIND       PRES   REMARKS
LA CROSSE      CLOUDY    75  72  90 S8        29.90R FOG
SPARTA         CLOUDY    70  68  95 CALM      29.91S
VIROQUA        CLOUDY    70  70 100 S5        29.94R VSB 1/4
BOSCOBEL       FOG       72  70  93 CALM      29.93R VSB 1/2
PRAIRIE DU CHI CLOUDY    71  70  95 CALM      29.91R FOG
PLATTEVILLE    CLOUDY    72  71  97 CALM      29.94R VSB 1/2
$$

WIZ056-057-062-063-064-067-068-221400-
SOUTH CENTRAL WISCONSIN

CITY           SKY/WX    TMP DP  RH WIND       PRES   REMARKS
BARABOO/DELLS  CLOUDY    71  69  94 CALM      29.93R FOG
LONE ROCK      CLOUDY    76  72  87 E3        29.92R FOG
WATERTOWN      FOG       71  71 100 SE3       29.94R VSB 1/2
MADISON        CLOUDY    74  72  93 SE5       29.93R FOG
MIDDLETON      CLOUDY    74  74 100 SE5       29.94R
MONROE         CLOUDY    72  72 100 SE5       29.93S FOG
JANESVILLE     CLOUDY    75  73  94 S6        29.93R FOG
$$

WIZ051-052-058>065-066-070>072-221400-
SOUTHEAST WISCONSIN

CITY           SKY/WX    TMP DP  RH WIND       PRES   REMARKS
MILWAUKEE      PTSUNNY   72  70  93 CALM      29.95R FOG
WAUKESHA       FOG       70  68  94 CALM      29.96R VSB 1/4
MILWAUKEE/TIMM NOT AVBL
RACINE         CLOUDY    73  71  93 CALM      29.96R FOG
BURLINGTON     CLOUDY    69  69 100 CALM      29.94S FOG
KENOSHA        CLOUDY    71  71 100 CALM      29.94S FOG
FOND DU LAC    CLOUDY    72  69  90 S5        29.94S
SHEBOYGAN      FOG       68  67  96 E7        29.96R VSB 1/4
WEST BEND      CLOUDY    68  66  94 CALM      29.95S FOG
JUNEAU         HAZE      71  47  42 CALM      29.95R VSB<1/4
$$

LSZ147-162-221400-
LAKE SUPERIOR

STATION/POSITION TIME  TEMP    WIND        PRES    WAVE
                       AIR SEA DIR/SP/G            HT/PER
                 (UTC) (F)     (DEG/KT/KT) (MB)    (FT/S)
W MID LAKE BUOY  1150   57 59   50/ 16/ 17 1014.2R   2/ 4
DEVILS ISLAND    1200   58      60/ 16/ 18 1014.1R
PORT WING        1200   59      30/  7/  9 1014.2R
SAXON HARBOR     1200   66        CALM     1013.5R
$$

LMZ867-665-643>646-221400-
LAKE MICHIGAN

STATION/POSITION TIME  TEMP    WIND        PRES    WAVE
                       AIR SEA DIR/SP/G            HT/PER
                 (UTC) (F)     (DEG/KT/KT) (MB)    (FT/S)
N MID LAKE BUOY  1150   65 64  140/  4/  6 1014.4R   1
NORTHPORT PIER   1200   65      90/  4/  4 1014.6R
SISTER BAY       1211   67        CALM       N/A
KEWAUNEE LAKESHO 1200   65     130/  2/  4 1013.4F
SHEBOYGAN LAKESH 1200   67 65   60/  6/  6 1014.0F
ATWATER BUOY     1200   69     300/  2/  2 1014.4R
MILWAUKEE LAKESH 1200   69      60/  2/  3   N/A
S MID LAKE BUOY  1150   69 68  150/  6/  6 1013.1S   0
KENOSHA   LAKESH 1200   71        CALM     1013.5R
$$

TC  - TEMPERATURE IN CELSIUS
VSB - VISIBILITY IN STATUTE MILES
WCI - WIND CHILL INDEX
HX  - HEAT INDEX



USA.gov is the U.S. government's official web portal to all federal, state and local government web resources and services.